RH
26 24 20 19 20 17 22 24 30 39 53 61 64 66 65 56 60 73 73 74 81 83 82 80 82 84 82 78 68 57 40 22 14 13 11 11 14 16 17 17 17 18 19 20
26 24 20 19 19 18 22 23 31 40 48 52 61 64 65 64 73 71 77 77 79 79 76 79 83 78 78 70 61 46 27 21 14 10 10 11 13 15 16 16 18 17 19 22
24 18 20 22 21 18 19 20 23 33 44 54 59 67 69 76 79 75 80 79 79 79 79 83 76 71 76 65 51 32 27 21 14 11 10 10 9 11 13 15 16 17 22 25
19 18 19 22 20 22 21 22 20 31 40 55 48 69 72 77 84 81 81 77 76 79 76 74 69 72 68 52 40 32 23 17 14 12 12 12 13 14 16 17 19 20 24 29
17 17 19 20 19 21 20 22 24 28 32 40 45 69 85 84 89 79 80 80 78 73 70 71 71 72 53 44 39 26 21 18 15 14 13 13 14 15 15 18 20 23 29 33
15 17 17 15 18 19 22 22 24 30 29 33 50 66 86 83 77 78 76 77 78 68 66 69 71 58 44 41 32 25 19 17 16 15 14 14 15 15 17 21 23 30 35 34
10 11 13 15 16 19 21 23 31 32 35 44 48 63 70 74 70 70 70 78 76 67 64 67 59 43 43 35 28 26 17 17 17 15 14 15 15 17 22 24 30 35 34 34
12 13 10 14 15 17 21 22 30 36 50 51 60 71 76 76 71 77 78 72 71 65 62 56 45 45 37 33 28 24 16 17 16 14 14 16 16 19 23 29 35 34 33 34
12 11 11 15 15 19 24 25 22 35 45 54 72 79 79 80 79 76 71 66 62 57 52 44 45 41 33 30 27 22 17 17 15 14 16 17 19 19 26 32 33 32 32 36
12 14 16 16 22 21 25 33 36 38 47 57 72 75 77 82 75 70 69 65 58 49 42 43 40 34 32 28 25 19 17 14 14 16 16 17 18 22 27 30 31 30 33 39
11 14 20 25 23 24 24 32 42 40 45 56 72 74 66 72 68 62 61 58 45 40 42 41 34 32 32 27 21 16 15 13 15 15 15 16 19 21 27 30 30 33 36 44
12 18 20 26 24 25 28 32 40 44 42 46 64 73 60 66 65 60 58 44 41 42 44 34 32 32 30 21 16 15 13 13 15 15 14 15 19 21 27 28 31 34 37 39
12 20 24 34 31 30 31 31 31 33 38 44 66 79 70 66 70 62 52 43 42 41 36 31 30 26 20 16 14 14 13 13 13 14 15 16 17 22 25 28 32 31 29 29
14 23 26 40 36 34 31 27 35 40 44 55 61 69 66 65 61 52 46 42 39 36 31 29 30 21 17 14 13 14 13 12 13 15 15 15 19 22 23 26 26 21 20 24
19 26 28 33 40 38 35 25 36 39 44 54 59 57 56 56 46 46 42 38 35 31 29 25 20 17 12 12 14 14 13 13 13 15 15 16 18 19 20 18 14 12 14 17
24 24 26 38 41 37 37 27 36 43 46 48 50 55 52 46 44 42 36 33 31 29 28 22 18 12 11 12 14 13 13 12 13 15 16 16 15 14 14 9 8 9 12 12
21 25 33 44 40 39 42 35 35 40 36 36 45 41 41 43 39 36 31 30 27 27 22 17 12 10 10 11 13 13 12 13 14 15 16 14 13 12 8 7 8 9 10 11
23 27 40 49 46 50 42 39 37 37 38 37 38 38 37 35 37 31 29 27 24 20 16 13 9 9 10 11 12 11 11 13 14 15 14 13 12 9 8 8 10 11 13 14
21 35 52 52 57 48 44 39 34 33 42 36 37 37 35 34 32 32 27 24 19 17 13 8 8 8 10 10 10 10 11 12 13 15 14 13 11 9 9 10 12 14 16 18
23 34 49 45 52 51 43 37 29 30 49 40 33 34 28 29 30 31 26 21 17 14 8 8 8 8 9 9 9 10 11 12 14 14 14 13 12 12 12 14 16 18 21 23
32 53 52 53 49 38 32 29 26 35 37 36 33 30 26 25 22 24 23 19 14 9 7 7 8 7 9 9 9 9 11 12 14 15 13 11 12 14 15 17 20 22 25 27
28 46 46 47 47 38 26 28 27 27 28 31 31 26 25 23 23 21 19 14 8 7 7 7 7 8 9 9 8 9 10 12 13 14 14 14 15 18 20 22 24 26 27 28
39 42 51 44 36 27 25 28 28 24 23 30 27 23 21 21 20 19 15 8 7 7 7 6 6 7 8 7 7 8 10 12 13 14 15 17 20 22 23 25 26 26 27 29
43 44 43 36 35 31 28 28 26 24 25 28 23 21 20 21 22 16 8 6 7 7 7 6 6 6 6 7 7 8 11 13 13 14 17 18 18 21 23 24 25 26 27 30
40 39 39 37 39 34 34 31 25 26 25 25 22 18 20 21 21 10 6 6 6 7 6 5 5 6 7 7 7 8 11 12 11 11 14 15 17 18 20 22 23 24 27 29
38 34 34 39 32 30 31 28 23 24 24 23 22 21 22 20 11 8 6 6 6 6 6 6 5 5 6 7 7 8 9 10 10 11 12 13 14 16 18 18 18 20 23 26